When you browse on this site, cookies collect data to enhance your experience and personalize the content and advertising you see.
Visit our Privacy Policy to learn more. By continuing to use the site, you agree to this use of cookies and data.
  • în România
  • Lista ţărilor
  • Pe 7 zile
  • Temperatura apei
  • Meteo pe hartă
  • Widget-uri
  • user-avatar
    Intrare

    Meteo pe oră la Serowe

    Astăzi, 21 Ianuarie, Marţi

    Timp Temperatura Precipitaţii Vânt Presiune Umiditate
    00:00 +19°C° 0 mm 4 m/s 667 mmHg 83%
    01:00 +18°C° 0 mm 4 m/s 667 mmHg 83%
    02:00 +18°C° 0 mm 4 m/s 667 mmHg 84%
    03:00 +17°C° 0 mm 5 m/s 667 mmHg 84%
    04:00 +17°C° 0 mm 5 m/s 667 mmHg 83%
    05:00 +17°C° 0 mm 6 m/s 666 mmHg 83%
    06:00 +17°C° 0 mm 5 m/s 667 mmHg 79%
    07:00 +19°C° 0 mm 5 m/s 667 mmHg 75%
    08:00 +19°C° 0 mm 5 m/s 668 mmHg 73%
    09:00 +22°C° 0 mm 5 m/s 668 mmHg 64%
    10:00 +25°C° 0 mm 4 m/s 668 mmHg 56%
    11:00 +27°C° 0 mm 4 m/s 669 mmHg 47%
    12:00 +29°C° 0 mm 4 m/s 668 mmHg 43%
    13:00 +30°C° 0 mm 4 m/s 668 mmHg 39%
    14:00 +33°C° 0 mm 4 m/s 667 mmHg 35%
    15:00 +33°C° 0 mm 4 m/s 667 mmHg 34%
    16:00 +33°C° 0 mm 4 m/s 666 mmHg 34%
    17:00 +33°C° 0 mm 4 m/s 666 mmHg 34%
    18:00 +30°C° 0 mm 3 m/s 666 mmHg 40%
    19:00 +28°C° 0 mm 3 m/s 666 mmHg 46%
    20:00 +26°C° 0 mm 3 m/s 666 mmHg 53%
    21:00 +25°C° 0 mm 3 m/s 666 mmHg 56%
    22:00 +24°C° 0 mm 2 m/s 666 mmHg 60%
    23:00 +23°C° 0 mm 2 m/s 666 mmHg 64%

    Mâine, 22 Ianuarie, Miercuri

    Timp Temperatura Precipitaţii Vânt Presiune Umiditate
    00:00 +22°C° 0 mm 3 m/s 666 mmHg 65%
    01:00 +21°C° 0 mm 3 m/s 665 mmHg 66%
    02:00 +21°C° 0 mm 3 m/s 665 mmHg 67%
    03:00 +20°C° 0 mm 3 m/s 665 mmHg 69%
    04:00 +20°C° 0 mm 3 m/s 665 mmHg 70%
    05:00 +19°C° 0 mm 3 m/s 665 mmHg 72%
    06:00 +20°C° 0 mm 3 m/s 665 mmHg 67%
    07:00 +21°C° 0 mm 4 m/s 666 mmHg 63%
    08:00 +22°C° 0 mm 4 m/s 666 mmHg 59%
    09:00 +26°C° 0 mm 3 m/s 667 mmHg 52%
    10:00 +28°C° 0 mm 3 m/s 667 mmHg 46%
    11:00 +30°C° 0 mm 3 m/s 667 mmHg 40%
    12:00 +31°C° 0 mm 3 m/s 667 mmHg 36%
    13:00 +34°C° 0 mm 3 m/s 666 mmHg 33%
    14:00 +35°C° 0 mm 3 m/s 666 mmHg 29%
    15:00 +35°C° 0 mm 3 m/s 665 mmHg 29%
    16:00 +35°C° 0 mm 3 m/s 665 mmHg 29%
    17:00 +34°C° 0 mm 3 m/s 664 mmHg 29%
    18:00 +33°C° 0 mm 3 m/s 664 mmHg 34%
    19:00 +30°C° 0 mm 2 m/s 664 mmHg 39%
    20:00 +28°C° 0 mm 2 m/s 664 mmHg 44%
    21:00 +28°C° 0 mm 2 m/s 664 mmHg 47%
    22:00 +27°C° 0 mm 3 m/s 664 mmHg 50%
    23:00 +26°C° 0 mm 3 m/s 665 mmHg 53%

    Poimâine, 23 Ianuarie, Joi

    Timp Temperatura Precipitaţii Vânt Presiune Umiditate
    00:00 +26°C° 0 mm 3 m/s 664 mmHg 52%
    01:00 +25°C° 0 mm 3 m/s 664 mmHg 50%
    02:00 +25°C° 0 mm 3 m/s 664 mmHg 49%
    03:00 +24°C° 0 mm 3 m/s 664 mmHg 51%
    04:00 +23°C° 0 mm 2 m/s 663 mmHg 53%
    05:00 +23°C° 0 mm 2 m/s 663 mmHg 56%
    06:00 +24°C° 0 mm 2 m/s 664 mmHg 51%
    07:00 +26°C° 0 mm 2 m/s 665 mmHg 47%
    08:00 +27°C° 0 mm 3 m/s 665 mmHg 42%
    09:00 +30°C° 0 mm 3 m/s 666 mmHg 37%
    10:00 +33°C° 0 mm 3 m/s 666 mmHg 32%
    11:00 +35°C° 0 mm 3 m/s 667 mmHg 27%
    12:00 +36°C° 0 mm 3 m/s 666 mmHg 25%
    13:00 +36°C° 0 mm 3 m/s 666 mmHg 24%
    14:00 +37°C° 0 mm 3 m/s 665 mmHg 22%
    15:00 +35°C° 0 mm 3 m/s 664 mmHg 26%
    16:00 +34°C° 0 mm 3 m/s 664 mmHg 29%
    17:00 +31°C° 0 mm 3 m/s 663 mmHg 32%
    18:00 +30°C° 0 mm 3 m/s 663 mmHg 35%
    19:00 +30°C° 0 mm 3 m/s 664 mmHg 37%
    20:00 +29°C° 0 mm 3 m/s 664 mmHg 40%
    21:00 +28°C° 0 mm 3 m/s 665 mmHg 41%
    22:00 +27°C° 0 mm 3 m/s 665 mmHg 43%
    23:00 +27°C° 0 mm 3 m/s 666 mmHg 44%

    24 Ianuarie, Vineri

    Timp Temperatura Precipitaţii Vânt Presiune Umiditate
    00:00 +26°C° 0 mm 3 m/s 666 mmHg 45%
    01:00 +26°C° 0 mm 2 m/s 666 mmHg 46%
    02:00 +25°C° 0 mm 2 m/s 666 mmHg 48%
    03:00 +25°C° 0 mm 3 m/s 666 mmHg 50%
    04:00 +23°C° 0 mm 4 m/s 666 mmHg 52%
    05:00 +23°C° 0 mm 4 m/s 666 mmHg 55%
    06:00 +23°C° 0 mm 5 m/s 667 mmHg 60%
    07:00 +23°C° 0 mm 6 m/s 667 mmHg 65%
    08:00 +23°C° 0 mm 7 m/s 667 mmHg 70%
    09:00 +26°C° 0 mm 7 m/s 668 mmHg 62%
    10:00 +28°C° 0 mm 7 m/s 668 mmHg 55%
    11:00 +30°C° 0 mm 6 m/s 669 mmHg 47%
    12:00 +32°C° 0 mm 6 m/s 668 mmHg 43%
    13:00 +33°C° 0 mm 6 m/s 668 mmHg 39%
    14:00 +34°C° 0 mm 6 m/s 667 mmHg 35%
    15:00 +34°C° 0 mm 6 m/s 667 mmHg 35%
    16:00 +34°C° 0 mm 6 m/s 666 mmHg 35%
    17:00 +34°C° 0 mm 6 m/s 666 mmHg 35%
    18:00 +32°C° 0 mm 6 m/s 666 mmHg 41%
    19:00 +29°C° 0 mm 5 m/s 666 mmHg 47%
    20:00 +27°C° 0 mm 5 m/s 666 mmHg 53%
    21:00 +26°C° 0 mm 5 m/s 666 mmHg 58%
    22:00 +24°C° 0 mm 6 m/s 666 mmHg 63%
    23:00 +23°C° 0 mm 6 m/s 666 mmHg 68%

    25 Ianuarie, Sâmbătă

    Timp Temperatura Precipitaţii Vânt Presiune Umiditate
    00:00 +23°C° 0 mm 6 m/s 666 mmHg 69%
    01:00 +22°C° 0 mm 6 m/s 666 mmHg 70%
    02:00 +22°C° 0 mm 6 m/s 666 mmHg 71%
    03:00 +22°C° 0 mm 6 m/s 666 mmHg 73%
    04:00 +21°C° 0 mm 5 m/s 666 mmHg 74%
    05:00 +21°C° 0 mm 5 m/s 666 mmHg 76%
    06:00 +22°C° 0 mm 5 m/s 667 mmHg 71%
    07:00 +23°C° 0 mm 5 m/s 667 mmHg 67%
    08:00 +25°C° 0 mm 5 m/s 668 mmHg 62%
    09:00 +27°C° 0.5 mm 5 m/s 668 mmHg 56%
    10:00 +29°C° 0.5 mm 4 m/s 668 mmHg 51%
    11:00 +30°C° 0.5 mm 4 m/s 668 mmHg 45%
    12:00 +31°C° 0.2 mm 3 m/s 668 mmHg 41%
    13:00 +33°C° 0.2 mm 3 m/s 667 mmHg 38%
    14:00 +34°C° 0.2 mm 2 m/s 666 mmHg 34%
    15:00 +33°C° 0 mm 3 m/s 666 mmHg 37%
    16:00 +31°C° 0 mm 3 m/s 665 mmHg 39%
    17:00 +32°C° 0 mm 4 m/s 665 mmHg 42%
    18:00 +29°C° 0.1 mm 4 m/s 665 mmHg 49%
    19:00 +27°C° 0.1 mm 3 m/s 665 mmHg 56%
    20:00 +25°C° 0.1 mm 2 m/s 665 mmHg 63%
    21:00 +25°C° 0 mm 2 m/s 665 mmHg 65%
    22:00 +25°C° 0 mm 1 m/s 665 mmHg 66%
    23:00 +25°C° 0 mm 1 m/s 666 mmHg 68%

    26 Ianuarie, Duminică

    Timp Temperatura Precipitaţii Vânt Presiune Umiditate
    00:00 +25°C° 0 mm 1 m/s 666 mmHg 66%
    01:00 +24°C° 0 mm 2 m/s 666 mmHg 65%
    02:00 +24°C° 0 mm 2 m/s 665 mmHg 63%
    03:00 +24°C° 0 mm 2 m/s 665 mmHg 64%
    04:00 +23°C° 0 mm 2 m/s 665 mmHg 64%
    05:00 +23°C° 0 mm 2 m/s 665 mmHg 64%
    06:00 +24°C° 0 mm 3 m/s 666 mmHg 60%
    07:00 +26°C° 0 mm 3 m/s 667 mmHg 55%
    08:00 +27°C° 0 mm 4 m/s 667 mmHg 50%
    09:00 +29°C° 0 mm 4 m/s 667 mmHg 44%
    10:00 +32°C° 0 mm 4 m/s 668 mmHg 38%
    11:00 +35°C° 0 mm 4 m/s 668 mmHg 32%
    12:00 +35°C° 0 mm 4 m/s 667 mmHg 30%
    13:00 +36°C° 0 mm 3 m/s 667 mmHg 29%
    14:00 +36°C° 0 mm 3 m/s 666 mmHg 27%
    15:00 +35°C° 0 mm 3 m/s 666 mmHg 31%
    16:00 +34°C° 0 mm 3 m/s 665 mmHg 34%
    17:00 +31°C° 0 mm 3 m/s 665 mmHg 38%
    18:00 +30°C° 0 mm 2 m/s 665 mmHg 42%
    19:00 +29°C° 0 mm 2 m/s 665 mmHg 46%
    20:00 +28°C° 0 mm 1 m/s 665 mmHg 49%
    21:00 +27°C° 0 mm 2 m/s 665 mmHg 52%
    22:00 +27°C° 0 mm 2 m/s 665 mmHg 54%
    23:00 +26°C° 0 mm 2 m/s 665 mmHg 57%
    Arată mai mult